Tracking 21076 objects as of 9-Aug-2020
HD Live streaming from Space Station
objects crossing your sky now
Track the most recent launched group of Starlink satellites

ESSA 2 (OT-2)

Track ESSA 2 (OT-2) now!
10-day predictions
ESSA 2 (OT-2) is classified as:


NORAD ID: 2091
Int'l Code: 1966-016A
Perigee: 1,361.9 km
Apogee: 1,421.3 km
Inclination: 101.2 °
Period: 113.4 minutes
Semi major axis: 7762 km
RCS: 0.8236 m2 (medium)
Launch date: February 28, 1966
Source: United States (US)
Launch site: AIR FORCE EASTERN TEST RANGE (AFETR)
aabbcc
Your satellite tracking list
Your tracking list is empty




NASA's NSSDC Master Catalog

Two Line Element Set (TLE):
1  2091U 66016A   20221.76674419 -.00000024  00000-0  10059-3 0  9997
2  2091 101.2015 151.1810 0038248 276.6452 136.9436 12.69382669522696
Source of the keplerian elements: AFSPC